Location: Sungai Buloh
(3.1000°N, 113.0000°E)
Time: 22:42:01
(UTC+00:00)

Atlas Centaur 2 - Pass Details

Date: 12 January 2026
Orbit: 456 x 1249 km, 30.4° (Epoch: 11 February)

Event Time Altitude Azimuth Distance (km) Brightness Sun altitude
Exits shadow 21:53:19 10° 322° (NW) 2,426 4.1 -11.2°
Reaches altitude 10° 21:53:28 10° 323° (NW) 2,416 4.1 -11.1°
Maximum altitude 21:55:25 12° 343° (NNW) 2,393 4.2 -10.7°
Drops below altitude 10° 21:57:30 10° 3° (N) 2,610 4.6 -10.2°
Sets 22:02:35 0° 33° (NNE) 3,782 5.7 -9.0°
